SL-16 DEB, 18527

Orbit data source: Space-Track

SL-16 DEB, 18527 is space debris in LEO originally from a launch on Wed, 18 Mar 1987 UTC launched from the Tyuratam Missile And Space Complex (TTMTR). Debris objects in space refer to the collection of defunct objects orbiting the Earth. Examples of debris include non-operational satellites, rocket bodies, and fragments generated from explosions, collisions, or faulty payload assembly.

Loading next visibility...
Identifier
18527, 1987-027E
Orbit
LEO
Country
Flag of CISCIS
Related business
Manufacturer
Yuzhnoe
Mission
Spacecraft
Bus & Motor
SEP MOTOR COVER, Unknown motor
Mass
~0 kg wet, ~1 kg dry
Launch date (UTC)
1987-03-18 (39 years ago)
Launch vehicle
Unknown
Launch site
Tyuratam Missile And Space Complex (TTMTR)
Object type
Payload
Rocket body
Debris
Shape & HBR
Unknown shape, 0.2 m
Radar Cross Section
Small (<0.1 m²)

Expand to show TLE details & history
Last TLE update: 6 hours ago

TLE from 6 hours ago
0 SL-16 DEB
1 18527U 87027E   25301.58942464  .00000229  00000-0  24509-3 0  9996
2 18527  70.9999  19.4540 0196576 239.3482 118.8113 13.75740288937340
Epoch: 2025-10-28T14:08Z
TLE epoch observation values (Epoch: 2025-10-28T14:08:46.288Z)
Latitude
-0.0001°
Longitude
130.08635°
Altitude
1,053.249 km
Speed
7.29 km/s
True Right ascension
01h 17m 48s
True Declination
0° 00' 00"
Sunlit
Object was in full shadow at epoch
Visualization orbit readout
Latitude
Unknown
Longitude
Unknown
Altitude
Unknown
Speed
Unknown
Apparent Right ascension
Unknown
Apparent Declination
Unknown
Sunlit
N/A
Visualization observer readout
Local Sidereal Time
15:48:24
Azimuth
Unknown
Elevation
Unknown
Doppler factor
Unknown
Orbital elements
Apogee altitude
1,121.581 km
Perigee altitude
832.412 km
Semi-major axis
7,355.134 km
Eccentricity
0.01966
Inclination
70.9999°
RAAN
19.454°
Arg. of periapsis
239.3482°
True anomaly
120.76156°
Mean anomaly
118.8113°
Eccentric anomaly
119.78877°
Mean motion
3.44078 °/min
Orbital period
104.63 mins
BSTAR
0.00024509
Loading maneuver chart data...
Computing Atmospheric mass density...
Loading historical data...
Loading historical data...
Loading historical data...
Loading historical data...
Loading historical data...
Loading historical data...
Loading historical data...

Documentation

Showing up to 5 results
|